RYR854 LIPZ-EDDN

Flight info

Callsign RYR854
Flight time N/A
Altitude 30000
Route ROKIB DCT EKPEB DCT BRENO M726 MAH L132 LASMI Y103 UNKUL L610 UPALA UPALA1T
Aircraft B738/M-SDE2E3FGHIRWXY/LB1

Departure

Time 2026-04-30 10:30
Airport Venice Marco Polo Airport (LIPZ)

Arrival

Time N/A
Airport Nuremberg Airport (EDDN)
Time Latitude Longitude Altitude Speed Heading
2026-04-30 10:04 45.50490 12.34218 15 ft 0 kts 268°
2026-04-30 10:19 45.50490 12.34231 16 ft 3 kts 270°
2026-04-30 10:19 45.50490 12.34260 17 ft 3 kts 271°
2026-04-30 10:20 45.50491 12.34286 18 ft 3 kts 254°
2026-04-30 10:20 45.50502 12.34341 17 ft 3 kts 249°
2026-04-30 10:20 45.50507 12.34356 18 ft 1 kts 245°
2026-04-30 10:21 45.50508 12.34360 18 ft 2 kts 245°
2026-04-30 10:22 45.50505 12.34357 18 ft 1 kts 223°
2026-04-30 10:22 45.50503 12.34356 16 ft 1 kts 209°
2026-04-30 10:23 45.50422 12.34334 17 ft 6 kts 179°
2026-04-30 10:23 45.50378 12.34352 20 ft 7 kts 164°
2026-04-30 10:24 45.50333 12.34355 20 ft 6 kts 180°
2026-04-30 10:24 45.50289 12.34344 19 ft 7 kts 202°
2026-04-30 10:24 45.50250 12.34297 17 ft 8 kts 222°
2026-04-30 10:24 45.50209 12.34243 17 ft 8 kts 222°
2026-04-30 10:25 45.50168 12.34191 17 ft 8 kts 221°
2026-04-30 10:25 45.50141 12.34158 18 ft 8 kts 221°
2026-04-30 10:25 45.50083 12.34084 14 ft 9 kts 221°
2026-04-30 10:25 45.50049 12.34041 13 ft 10 kts 223°
2026-04-30 10:26 45.49999 12.33975 14 ft 10 kts 223°
2026-04-30 10:26 45.49950 12.33910 15 ft 9 kts 221°
2026-04-30 10:26 45.49900 12.33851 14 ft 9 kts 209°
2026-04-30 10:26 45.49816 12.33822 13 ft 9 kts 191°
2026-04-30 10:27 45.49775 12.33811 14 ft 9 kts 191°
2026-04-30 10:27 45.49715 12.33791 17 ft 9 kts 197°
2026-04-30 10:27 45.49664 12.33747 17 ft 8 kts 218°
2026-04-30 10:27 45.49620 12.33693 17 ft 8 kts 222°
2026-04-30 10:28 45.49479 12.33656 17 ft 8 kts 131°
2026-04-30 10:28 45.49450 12.33704 16 ft 8 kts 131°
2026-04-30 10:29 45.49443 12.33714 17 ft 1 kts 130°
2026-04-30 10:29 45.49432 12.33733 15 ft 3 kts 128°
2026-04-30 10:29 45.49421 12.33766 15 ft 5 kts 96°
2026-04-30 10:29 45.49436 12.33808 14 ft 5 kts 46°
2026-04-30 10:30 45.49529 12.33928 14 ft 48 kts 42°
2026-04-30 10:30 45.49963 12.34483 13 ft 116 kts 42°
2026-04-30 10:30 45.50673 12.35423 182 ft 153 kts 50°
2026-04-30 10:30 45.51453 12.36468 1031 ft 154 kts 48°
2026-04-30 10:31 45.52206 12.37486 1948 ft 146 kts 49°
2026-04-30 10:31 45.53003 12.38570 2334 ft 175 kts 49°
2026-04-30 10:31 45.53578 12.40150 2842 ft 184 kts 81°
2026-04-30 10:31 45.53472 12.41967 3683 ft 184 kts 96°
2026-04-30 10:32 45.53288 12.43864 4169 ft 203 kts 95°
2026-04-30 10:32 45.53093 12.45945 4708 ft 217 kts 96°
2026-04-30 10:32 45.52879 12.48107 5371 ft 224 kts 96°
2026-04-30 10:32 45.52611 12.50291 6209 ft 222 kts 109°
2026-04-30 10:33 45.51725 12.52098 6907 ft 230 kts 142°
2026-04-30 10:33 45.50240 12.52947 7575 ft 236 kts 175°
2026-04-30 10:33 45.48617 12.52628 8277 ft 238 kts 197°
2026-04-30 10:33 45.47176 12.51475 8930 ft 242 kts 228°
2026-04-30 10:34 45.46387 12.49373 9571 ft 246 kts 259°
2026-04-30 10:34 45.46470 12.46890 9808 ft 267 kts 286°
2026-04-30 10:34 45.47008 12.44363 10163 ft 285 kts 289°
2026-04-30 10:34 45.47631 12.41640 10651 ft 297 kts 289°
2026-04-30 10:35 45.48296 12.38734 10807 ft 320 kts 289°
2026-04-30 10:35 45.49000 12.35603 10966 ft 342 kts 288°
2026-04-30 10:35 45.49737 12.32271 11093 ft 363 kts 288°
2026-04-30 10:35 45.50494 12.28809 11395 ft 376 kts 288°
2026-04-30 10:36 45.51275 12.25212 11961 ft 380 kts 288°
2026-04-30 10:36 45.52057 12.21597 12666 ft 381 kts 288°
2026-04-30 10:36 45.52840 12.17988 13416 ft 383 kts 288°
2026-04-30 10:36 45.53636 12.14343 14042 ft 387 kts 288°
2026-04-30 10:37 45.54440 12.10667 14700 ft 389 kts 288°
2026-04-30 10:37 45.55246 12.06974 15354 ft 391 kts 288°
2026-04-30 10:37 45.56058 12.03244 15973 ft 395 kts 288°
2026-04-30 10:37 45.56876 11.99478 16526 ft 399 kts 288°
2026-04-30 10:38 45.57980 11.95853 17161 ft 400 kts 303°
2026-04-30 10:38 45.59803 11.92838 17736 ft 404 kts 319°
2026-04-30 10:38 45.62186 11.90665 18273 ft 410 kts 333°
2026-04-30 10:38 45.64774 11.88949 18866 ft 412 kts 334°
2026-04-30 10:39 45.67402 11.87238 19338 ft 416 kts 334°
2026-04-30 10:39 45.70032 11.85481 19844 ft 418 kts 334°
2026-04-30 10:39 45.71774 11.84296 20182 ft 420 kts 333°
2026-04-30 10:39 45.74412 11.82480 20719 ft 421 kts 333°
2026-04-30 10:40 45.77924 11.80047 21376 ft 424 kts 333°
2026-04-30 10:40 45.80584 11.78201 21857 ft 426 kts 333°
2026-04-30 10:40 45.83257 11.76349 22333 ft 428 kts 333°
2026-04-30 10:40 45.85948 11.74484 22790 ft 430 kts 333°
2026-04-30 10:41 45.87772 11.73223 23081 ft 432 kts 333°
2026-04-30 10:41 45.90492 11.71346 23518 ft 435 kts 333°
2026-04-30 10:41 45.93201 11.69503 23930 ft 437 kts 335°
2026-04-30 10:41 45.96122 11.68261 24268 ft 441 kts 347°
2026-04-30 10:42 45.99157 11.67426 24636 ft 443 kts 347°
2026-04-30 10:42 46.02199 11.66610 24967 ft 445 kts 347°
2026-04-30 10:42 46.05250 11.65783 25272 ft 447 kts 347°
2026-04-30 10:42 46.08309 11.64934 25582 ft 449 kts 347°
2026-04-30 10:43 46.11386 11.64063 25906 ft 451 kts 346°
2026-04-30 10:43 46.14466 11.63178 26222 ft 453 kts 346°
2026-04-30 10:43 46.17562 11.62281 26544 ft 454 kts 346°
2026-04-30 10:43 46.20652 11.61384 26938 ft 453 kts 346°
2026-04-30 10:44 46.23733 11.60487 27362 ft 451 kts 346°
2026-04-30 10:44 46.26799 11.59594 27823 ft 449 kts 346°
2026-04-30 10:44 46.29855 11.58703 28281 ft 447 kts 346°
2026-04-30 10:44 46.32898 11.57815 28777 ft 445 kts 346°
2026-04-30 10:45 46.35932 11.56928 29209 ft 444 kts 346°
2026-04-30 10:45 46.38961 11.56042 29668 ft 442 kts 345°
2026-04-30 10:45 46.41973 11.55161 30129 ft 441 kts 345°
2026-04-30 10:45 46.44980 11.54278 30225 ft 444 kts 345°
2026-04-30 10:46 46.51041 11.52498 30245 ft 442 kts 345°
2026-04-30 10:46 46.57034 11.50736 30206 ft 439 kts 345°
2026-04-30 10:47 46.62947 11.48995 30258 ft 435 kts 345°
2026-04-30 10:47 46.68928 11.47222 30273 ft 437 kts 345°
2026-04-30 10:48 46.74883 11.45324 30263 ft 440 kts 343°
2026-04-30 10:48 46.80868 11.43335 30259 ft 442 kts 344°
2026-04-30 10:49 46.86880 11.41355 30275 ft 444 kts 344°
2026-04-30 10:49 46.92865 11.39390 30290 ft 444 kts 344°
2026-04-30 10:50 46.98236 11.37925 30278 ft 446 kts 352°
2026-04-30 10:50 47.04460 11.38198 30317 ft 449 kts
2026-04-30 10:51 47.10685 11.38935 30301 ft 448 kts 360°
2026-04-30 10:51 47.16893 11.39593 30299 ft 447 kts 360°
2026-04-30 10:52 47.23114 11.40202 30297 ft 447 kts 358°
2026-04-30 10:52 47.29301 11.40288 30293 ft 443 kts 355°
2026-04-30 10:53 47.35466 11.40197 30294 ft 443 kts 355°
2026-04-30 10:53 47.41615 11.40179 30296 ft 442 kts 355°
2026-04-30 10:54 47.47771 11.40127 30309 ft 442 kts 355°
2026-04-30 10:54 47.53920 11.40072 30298 ft 441 kts 355°
2026-04-30 10:55 47.60054 11.40018 30317 ft 441 kts 355°
2026-04-30 10:55 47.66171 11.39595 30339 ft 438 kts 350°
2026-04-30 10:56 47.70729 11.38916 30320 ft 439 kts 349°
2026-04-30 10:56 47.76810 11.38009 30339 ft 439 kts 349°
2026-04-30 10:57 47.82861 11.37173 30343 ft 440 kts 349°
2026-04-30 10:57 47.88965 11.36428 30353 ft 442 kts 351°
2026-04-30 10:58 47.95154 11.35956 30353 ft 442 kts 352°
2026-04-30 10:58 48.01255 11.35476 30350 ft 442 kts 351°
2026-04-30 10:59 48.04317 11.35216 30340 ft 442 kts 351°
2026-04-30 10:59 48.06175 11.35056 30354 ft 441 kts 351°
2026-04-30 11:00 48.12250 11.34038 30352 ft 438 kts 346°
2026-04-30 11:00 48.18290 11.32763 30357 ft 438 kts 347°
2026-04-30 11:01 48.24407 11.32337 30345 ft 452 kts
2026-04-30 11:01 48.27424 11.33801 30411 ft 463 kts 19°
2026-04-30 11:01 48.30175 11.36478 30371 ft 478 kts 36°
2026-04-30 11:02 48.34975 11.43417 30386 ft 481 kts 40°
2026-04-30 11:02 48.39705 11.50534 30382 ft 480 kts 40°
2026-04-30 11:03 48.44453 11.57490 30374 ft 478 kts 40°
2026-04-30 11:04 48.51638 11.67741 30366 ft 468 kts 32°
2026-04-30 11:04 48.54451 11.70056 30389 ft 456 kts 16°
2026-04-30 11:04 48.57491 11.71218 30400 ft 447 kts
2026-04-30 11:04 48.60574 11.71232 30409 ft 440 kts 351°
2026-04-30 11:05 48.63617 11.70769 30402 ft 440 kts 351°
2026-04-30 11:05 48.69577 11.68983 30399 ft 435 kts 339°
2026-04-30 11:06 48.75298 11.65928 30404 ft 436 kts 339°
2026-04-30 11:06 48.81053 11.62954 30399 ft 438 kts 339°
2026-04-30 11:06 48.83954 11.61463 29847 ft 445 kts 339°
2026-04-30 11:07 48.86887 11.59949 29090 ft 443 kts 340°
2026-04-30 11:07 48.89799 11.58443 28219 ft 441 kts 340°
2026-04-30 11:07 48.92708 11.56936 27311 ft 441 kts 340°
2026-04-30 11:07 48.95574 11.55448 26376 ft 442 kts 340°
2026-04-30 11:08 48.98301 11.54031 25557 ft 443 kts 340°
2026-04-30 11:08 48.99854 11.53224 25211 ft 440 kts 340°
2026-04-30 11:08 49.02779 11.51701 24513 ft 435 kts 341°
2026-04-30 11:08 49.05634 11.50214 23807 ft 431 kts 341°
2026-04-30 11:09 49.08458 11.48742 23022 ft 427 kts 341°
2026-04-30 11:09 49.10450 11.47578 22491 ft 423 kts 334°
2026-04-30 11:09 49.12900 11.45115 21818 ft 420 kts 320°
2026-04-30 11:09 49.14909 11.41910 21102 ft 418 kts 309°
2026-04-30 11:10 49.16374 11.38155 20403 ft 418 kts 297°
2026-04-30 11:10 49.17595 11.34137 19729 ft 414 kts 297°
2026-04-30 11:10 49.18806 11.30210 19078 ft 410 kts 298°
2026-04-30 11:10 49.19670 11.27477 18614 ft 408 kts 298°
2026-04-30 11:11 49.20934 11.23601 17869 ft 404 kts 301°
2026-04-30 11:11 49.22641 11.20256 17194 ft 396 kts 319°
2026-04-30 11:11 49.24720 11.17541 16549 ft 391 kts 321°
2026-04-30 11:11 49.26803 11.14894 15889 ft 388 kts 325°
2026-04-30 11:12 49.29174 11.13017 15251 ft 382 kts 343°
2026-04-30 11:12 49.31761 11.12263 14545 ft 380 kts 359°
2026-04-30 11:12 49.34384 11.12516 14011 ft 374 kts
2026-04-30 11:12 49.36925 11.11876 13219 ft 376 kts 338°
2026-04-30 11:13 49.39059 11.09553 12387 ft 381 kts 314°
2026-04-30 11:13 49.40322 11.05978 11743 ft 387 kts 286°
2026-04-30 11:13 49.40577 11.01917 11557 ft 375 kts 274°
2026-04-30 11:13 49.40766 10.98001 11341 ft 362 kts 278°
2026-04-30 11:14 49.41075 10.94231 11182 ft 349 kts 280°
2026-04-30 11:14 49.41427 10.90612 11015 ft 338 kts 281°
2026-04-30 11:14 49.41767 10.87229 10899 ft 328 kts 281°
2026-04-30 11:14 49.42103 10.83811 10771 ft 319 kts 281°
2026-04-30 11:15 49.42424 10.80482 10616 ft 311 kts 281°
2026-04-30 11:15 49.42532 10.79373 10571 ft 308 kts 281°
2026-04-30 11:15 49.42799 10.76618 10466 ft 302 kts 281°
2026-04-30 11:15 49.43097 10.73487 10338 ft 288 kts 281°
2026-04-30 11:16 49.43389 10.70432 9942 ft 290 kts 281°
2026-04-30 11:16 49.43678 10.67382 9664 ft 288 kts 281°
2026-04-30 11:16 49.43928 10.64745 9386 ft 288 kts 281°
2026-04-30 11:16 49.44006 10.63919 9300 ft 288 kts 280°
2026-04-30 11:17 49.44166 10.62211 9148 ft 287 kts 280°
2026-04-30 11:17 49.44450 10.59188 8876 ft 286 kts 279°
2026-04-30 11:18 49.44734 10.56155 8585 ft 286 kts 280°
2026-04-30 11:18 49.46466 10.51000 8053 ft 272 kts 328°
2026-04-30 11:18 49.48152 10.49827 7858 ft 261 kts 351°
2026-04-30 11:19 49.49880 10.49675 7766 ft 240 kts
2026-04-30 11:19 49.51484 10.50005 7666 ft 225 kts 12°
2026-04-30 11:19 49.52977 10.50392 7543 ft 209 kts 22°
2026-04-30 11:19 49.54088 10.51638 7162 ft 201 kts 64°
2026-04-30 11:20 49.54356 10.53644 7000 ft 190 kts 85°
2026-04-30 11:20 49.54435 10.55657 6897 ft 185 kts 86°
2026-04-30 11:20 49.54477 10.57628 6742 ft 180 kts 90°
2026-04-30 11:20 49.54470 10.59518 6673 ft 177 kts 89°
2026-04-30 11:21 49.54413 10.61395 6568 ft 173 kts 94°
2026-04-30 11:21 49.54288 10.63251 6634 ft 174 kts 96°
2026-04-30 11:21 49.54127 10.65115 6452 ft 176 kts 97°
2026-04-30 11:21 49.53946 10.66973 6230 ft 176 kts 97°
2026-04-30 11:22 49.53761 10.68856 5976 ft 179 kts 97°
2026-04-30 11:22 49.53572 10.70741 5716 ft 178 kts 97°
2026-04-30 11:22 49.53395 10.72503 5519 ft 171 kts 97°
2026-04-30 11:22 49.53225 10.74306 5292 ft 170 kts 98°
2026-04-30 11:23 49.53039 10.76081 5070 ft 171 kts 97°
2026-04-30 11:23 49.52890 10.77887 4842 ft 167 kts 96°
2026-04-30 11:23 49.52497 10.81252 4392 ft 165 kts 95°
2026-04-30 11:24 49.52325 10.82904 4211 ft 165 kts 97°
2026-04-30 11:24 49.52211 10.84106 3994 ft 173 kts 97°